Time,TemperatureF,DewpointF,PressureIn,WindDirection,WindDirectionDegrees,WindSpeedMPH,WindSpeedGustMPH,Humidity,HourlyPrecipIn,Conditions,Clouds,dailyrainin,SolarRadiationWatts/m^2,SoftwareType,DateUTC
2013-08-24 00:02:00,65.0,44.0,-100.00,ESE,105,0.0,5.0,47,0.00,,,0.07,0.000000,,2013-08-24 06:02:00,
2013-08-24 00:12:00,65.0,44.0,-100.00,ESE,105,0.0,5.0,47,0.00,,,0.07,0.000000,,2013-08-24 06:12:00,
2013-08-24 00:21:00,65.0,44.0,-100.00,ESE,105,0.0,5.0,47,0.00,,,0.07,0.000000,,2013-08-24 06:21:00,
2013-08-24 00:52:00,62.0,43.0,-100.00,SE,133,0.0,3.0,50,0.00,,,0.06,0.000000,,2013-08-24 06:52:00,
2013-08-24 01:02:00,62.0,43.0,-100.00,SE,133,0.0,3.0,50,0.00,,,0.06,0.000000,,2013-08-24 07:02:00,
2013-08-24 01:12:00,62.0,43.0,-100.00,SE,133,0.0,3.0,50,0.00,,,0.06,0.000000,,2013-08-24 07:12:00,
2013-08-24 01:21:00,62.0,43.0,-100.00,SE,133,0.0,3.0,50,0.00,,,0.06,0.000000,,2013-08-24 07:21:00,
2013-08-24 01:53:00,61.0,45.0,-100.00,ESE,119,0.0,5.0,55,0.00,,,0.06,0.000000,,2013-08-24 07:53:00,
2013-08-24 02:02:00,61.0,45.0,-100.00,ESE,119,0.0,5.0,55,0.00,,,0.06,0.000000,,2013-08-24 08:02:00,
2013-08-24 02:12:00,61.0,45.0,-100.00,ESE,119,0.0,5.0,55,0.00,,,0.06,0.000000,,2013-08-24 08:12:00,
2013-08-24 02:22:00,61.0,45.0,-100.00,ESE,119,0.0,5.0,55,0.00,,,0.06,0.000000,,2013-08-24 08:22:00,
2013-08-24 02:52:00,59.0,46.0,-100.00,East,90,0.0,4.0,61,0.00,,,0.06,0.000000,,2013-08-24 08:52:00,
2013-08-24 03:01:00,59.0,46.0,-100.00,East,90,0.0,4.0,61,0.00,,,0.06,0.000000,,2013-08-24 09:01:00,
2013-08-24 03:11:00,59.0,46.0,-100.00,East,90,0.0,4.0,61,0.00,,,0.06,0.000000,,2013-08-24 09:11:00,
2013-08-24 03:22:00,59.0,46.0,-100.00,East,90,0.0,4.0,61,0.00,,,0.06,0.000000,,2013-08-24 09:22:00,
2013-08-24 03:53:00,55.0,46.0,-100.00,NNE,24,0.0,4.0,71,0.00,,,0.06,0.000000,,2013-08-24 09:53:00,
2013-08-24 04:03:00,55.0,46.0,-100.00,NNE,24,0.0,4.0,71,0.00,,,0.06,0.000000,,2013-08-24 10:03:00,
2013-08-24 04:13:00,55.0,46.0,-100.00,NNE,24,0.0,4.0,71,0.00,,,0.06,0.000000,,2013-08-24 10:13:00,
2013-08-24 04:23:00,55.0,46.0,-100.00,NNE,24,0.0,4.0,71,0.00,,,0.06,0.000000,,2013-08-24 10:23:00,
2013-08-24 04:53:00,52.0,45.0,-100.00,NNE,31,0.0,0.0,76,0.00,,,0.06,0.000000,,2013-08-24 10:53:00,
2013-08-24 05:02:00,52.0,45.0,-100.00,NNE,31,0.0,0.0,76,0.00,,,0.06,0.000000,,2013-08-24 11:02:00,
2013-08-24 05:12:00,52.0,45.0,-100.00,NNE,31,0.0,0.0,76,0.00,,,0.06,0.000000,,2013-08-24 11:12:00,
2013-08-24 05:22:00,52.0,45.0,-100.00,NNE,31,0.0,0.0,76,0.00,,,0.06,0.000000,,2013-08-24 11:22:00,
2013-08-24 05:52:00,50.0,44.0,-100.00,SE,126,0.0,0.0,80,0.00,,,0.06,0.000000,,2013-08-24 11:52:00,
2013-08-24 06:02:00,50.0,44.0,-100.00,SE,126,0.0,0.0,80,0.00,,,0.06,0.000000,,2013-08-24 12:02:00,
2013-08-24 06:11:00,50.0,44.0,-100.00,SE,126,0.0,0.0,80,0.00,,,0.06,0.000000,,2013-08-24 12:11:00,
2013-08-24 06:21:00,50.0,44.0,-100.00,SE,126,0.0,0.0,80,0.00,,,0.06,0.000000,,2013-08-24 12:21:00,
2013-08-24 06:52:00,48.0,44.0,-100.00,ENE,67,0.0,0.0,87,0.00,,,0.06,0.000000,,2013-08-24 12:52:00,
2013-08-24 07:02:00,48.0,44.0,-100.00,ENE,67,0.0,0.0,87,0.00,,,0.06,0.000000,,2013-08-24 13:02:00,
2013-08-24 07:11:00,48.0,44.0,-100.00,ENE,67,0.0,0.0,87,0.00,,,0.06,0.000000,,2013-08-24 13:11:00,
2013-08-24 07:22:00,48.0,44.0,-100.00,ENE,67,0.0,0.0,87,0.00,,,0.06,0.000000,,2013-08-24 13:22:00,
2013-08-24 07:52:00,48.0,45.0,-100.00,East,79,0.0,0.0,91,0.00,,,0.06,1.000000,,2013-08-24 13:52:00,
2013-08-24 08:02:00,48.0,45.0,-100.00,East,79,0.0,0.0,91,0.00,,,0.06,1.000000,,2013-08-24 14:02:00,
2013-08-24 08:11:00,48.0,45.0,-100.00,East,79,0.0,0.0,91,0.00,,,0.06,1.000000,,2013-08-24 14:11:00,
2013-08-24 08:22:00,48.0,45.0,-100.00,East,79,0.0,0.0,91,0.00,,,0.06,1.000000,,2013-08-24 14:22:00,
2013-08-24 08:52:00,49.0,46.0,-100.00,SE,128,0.0,0.0,88,0.00,,,0.05,29.000000,,2013-08-24 14:52:00,
2013-08-24 09:01:00,49.0,46.0,-100.00,SE,128,0.0,0.0,88,0.00,,,0.05,29.000000,,2013-08-24 15:01:00,
2013-08-24 09:11:00,49.0,46.0,-100.00,SE,128,0.0,0.0,88,0.00,,,0.05,29.000000,,2013-08-24 15:11:00,
2013-08-24 09:21:00,49.0,46.0,-100.00,SE,128,0.0,0.0,88,0.00,,,0.05,29.000000,,2013-08-24 15:21:00,
2013-08-24 09:54:00,56.0,47.0,-100.00,NW,304,0.0,0.0,71,0.00,,,0.02,159.000000,,2013-08-24 15:54:00,
2013-08-24 10:04:00,56.0,47.0,-100.00,NW,304,0.0,0.0,71,0.00,,,0.02,159.000000,,2013-08-24 16:04:00,
2013-08-24 10:13:00,56.0,47.0,-100.00,NW,304,0.0,0.0,71,0.00,,,0.02,159.000000,,2013-08-24 16:13:00,
2013-08-24 10:23:00,56.0,47.0,-100.00,NW,304,0.0,0.0,71,0.00,,,0.02,159.000000,,2013-08-24 16:23:00,
2013-08-24 10:53:00,61.0,45.0,-100.00,WNW,282,0.0,0.0,56,0.00,,,0.01,399.000000,,2013-08-24 16:53:00,
2013-08-24 11:02:00,61.0,45.0,-100.00,WNW,282,0.0,0.0,56,0.00,,,0.01,399.000000,,2013-08-24 17:02:00,
2013-08-24 11:12:00,61.0,45.0,-100.00,WNW,282,0.0,0.0,56,0.00,,,0.01,399.000000,,2013-08-24 17:12:00,
2013-08-24 11:23:00,61.0,45.0,-100.00,WNW,282,0.0,0.0,56,0.00,,,0.01,399.000000,,2013-08-24 17:23:00,
2013-08-24 11:52:00,71.0,46.0,-100.00,WNW,295,3.0,4.0,41,0.00,,,0.00,546.000000,,2013-08-24 17:52:00,
2013-08-24 12:02:00,71.0,46.0,-100.00,WNW,295,3.0,4.0,41,0.00,,,0.00,546.000000,,2013-08-24 18:02:00,
2013-08-24 12:13:00,71.0,46.0,-100.00,WNW,295,3.0,4.0,41,0.00,,,0.00,546.000000,,2013-08-24 18:13:00,
2013-08-24 12:22:00,71.0,46.0,-100.00,WNW,295,3.0,4.0,41,0.00,,,0.00,546.000000,,2013-08-24 18:22:00,
2013-08-24 12:53:00,73.0,40.0,-100.00,SE,134,8.0,8.0,30,0.00,,,0.00,467.000000,,2013-08-24 18:53:00,
2013-08-24 13:01:00,73.0,40.0,-100.00,SE,134,8.0,8.0,30,0.00,,,0.00,467.000000,,2013-08-24 19:01:00,
2013-08-24 13:12:00,73.0,40.0,-100.00,SE,134,8.0,8.0,30,0.00,,,0.00,467.000000,,2013-08-24 19:12:00,
2013-08-24 13:21:00,73.0,40.0,-100.00,SE,134,8.0,8.0,30,0.00,,,0.00,467.000000,,2013-08-24 19:21:00,
2013-08-24 13:52:00,81.0,37.0,-100.00,SSE,147,6.0,17.0,21,0.00,,,0.00,581.000000,,2013-08-24 19:52:00,
2013-08-24 14:02:00,81.0,37.0,-100.00,SSE,147,6.0,17.0,21,0.00,,,0.00,581.000000,,2013-08-24 20:02:00,
2013-08-24 14:11:00,81.0,37.0,-100.00,SSE,147,6.0,17.0,21,0.00,,,0.00,581.000000,,2013-08-24 20:11:00,
2013-08-24 14:22:00,81.0,37.0,-100.00,SSE,147,6.0,17.0,21,0.00,,,0.00,581.000000,,2013-08-24 20:22:00,
2013-08-24 14:52:00,83.0,32.0,-100.00,SE,136,8.0,12.0,16,0.00,,,0.00,746.000000,,2013-08-24 20:52:00,
2013-08-24 15:02:00,83.0,32.0,-100.00,SE,136,8.0,12.0,16,0.00,,,0.00,746.000000,,2013-08-24 21:02:00,
2013-08-24 15:11:00,83.0,32.0,-100.00,SE,136,8.0,12.0,16,0.00,,,0.00,746.000000,,2013-08-24 21:11:00,
2013-08-24 15:22:00,83.0,32.0,-100.00,SE,136,8.0,12.0,16,0.00,,,0.00,746.000000,,2013-08-24 21:22:00,
2013-08-24 15:55:00,83.0,32.0,-100.00,ENE,67,6.0,21.0,16,0.00,,,-99.99,662.000000,,2013-08-24 21:55:00,
2013-08-24 16:04:00,83.0,32.0,-100.00,ENE,67,6.0,21.0,16,0.00,,,-99.99,662.000000,,2013-08-24 22:04:00,
2013-08-24 16:14:00,83.0,32.0,-100.00,ENE,67,6.0,21.0,16,0.00,,,-99.99,662.000000,,2013-08-24 22:14:00,
2013-08-24 16:23:00,83.0,32.0,-100.00,ENE,67,6.0,21.0,16,0.00,,,-99.99,662.000000,,2013-08-24 22:23:00,
2013-08-24 16:53:00,86.0,33.0,-100.00,South,186,4.0,16.0,15,0.00,,,0.00,642.000000,,2013-08-24 22:53:00,
2013-08-24 17:03:00,86.0,33.0,-100.00,South,186,4.0,16.0,15,0.00,,,0.00,642.000000,,2013-08-24 23:03:00,
2013-08-24 17:12:00,86.0,33.0,-100.00,South,186,4.0,16.0,15,0.00,,,0.00,642.000000,,2013-08-24 23:12:00,
2013-08-24 17:22:00,86.0,33.0,-100.00,South,186,4.0,16.0,15,0.00,,,0.00,642.000000,,2013-08-24 23:22:00,
2013-08-24 17:53:00,82.0,34.0,-100.00,ENE,68,4.0,16.0,18,0.00,,,0.00,416.000000,,2013-08-24 23:53:00,
2013-08-24 18:02:00,82.0,34.0,-100.00,ENE,68,4.0,16.0,18,0.00,,,0.00,416.000000,,2013-08-25 00:02:00,
2013-08-24 18:11:00,82.0,34.0,-100.00,ENE,68,4.0,16.0,18,0.00,,,0.00,416.000000,,2013-08-25 00:11:00,
2013-08-24 18:21:00,82.0,34.0,-100.00,ENE,68,4.0,16.0,18,0.00,,,0.00,416.000000,,2013-08-25 00:21:00,
2013-08-24 18:52:00,80.0,37.0,-100.00,SSE,154,6.0,12.0,21,0.00,,,0.00,134.000000,,2013-08-25 00:52:00,
2013-08-24 19:01:00,80.0,37.0,-100.00,SSE,154,6.0,12.0,21,0.00,,,0.00,134.000000,,2013-08-25 01:01:00,
2013-08-24 19:11:00,80.0,37.0,-100.00,SSE,154,6.0,12.0,21,0.00,,,0.00,134.000000,,2013-08-25 01:11:00,
2013-08-24 19:22:00,80.0,37.0,-100.00,SSE,154,6.0,12.0,21,0.00,,,0.00,134.000000,,2013-08-25 01:22:00,
2013-08-24 19:52:00,76.0,38.0,-100.00,SE,132,6.0,19.0,25,0.00,,,0.00,91.000000,,2013-08-25 01:52:00,
2013-08-24 20:02:00,76.0,38.0,-100.00,SE,132,6.0,19.0,25,0.00,,,0.00,91.000000,,2013-08-25 02:02:00,
2013-08-24 20:11:00,76.0,38.0,-100.00,SE,132,6.0,19.0,25,0.00,,,0.00,91.000000,,2013-08-25 02:11:00,
2013-08-24 20:22:00,76.0,38.0,-100.00,SE,132,6.0,19.0,25,0.00,,,0.00,91.000000,,2013-08-25 02:22:00,
2013-08-24 20:52:00,73.0,38.0,-100.00,SE,141,12.0,21.0,28,0.00,,,0.00,40.000000,,2013-08-25 02:52:00,
2013-08-24 21:02:00,73.0,38.0,-100.00,SE,141,12.0,21.0,28,0.00,,,0.00,40.000000,,2013-08-25 03:02:00,
2013-08-24 21:11:00,73.0,38.0,-100.00,SE,141,12.0,21.0,28,0.00,,,0.00,40.000000,,2013-08-25 03:11:00,
2013-08-24 21:22:00,73.0,38.0,-100.00,SE,141,12.0,21.0,28,0.00,,,0.00,40.000000,,2013-08-25 03:22:00,
2013-08-24 21:54:00,68.0,43.0,-100.00,SE,127,13.0,23.0,40,0.00,,,0.00,3.000000,,2013-08-25 03:54:00,
2013-08-24 22:02:00,-999.0,-99.9,-100.00,SE,127,13.0,23.0,-999,-99.99,,,-99.99,3.000000,,2013-08-25 04:02:00,
2013-08-24 22:14:00,68.0,43.0,-100.00,SE,127,13.0,23.0,40,0.00,,,0.00,3.000000,,2013-08-25 04:14:00,
2013-08-24 22:24:00,68.0,43.0,-100.00,SE,127,13.0,23.0,40,0.00,,,0.00,3.000000,,2013-08-25 04:24:00,
2013-08-24 22:54:00,67.0,43.0,-100.00,SSE,163,5.0,34.0,42,0.00,,,-99.99,0.000000,,2013-08-25 04:54:00,
2013-08-24 23:03:00,67.0,43.0,-100.00,SSE,163,5.0,34.0,42,0.00,,,-99.99,0.000000,,2013-08-25 05:03:00,
2013-08-24 23:12:00,67.0,43.0,-100.00,SSE,163,5.0,34.0,42,0.00,,,-99.99,0.000000,,2013-08-25 05:12:00,
2013-08-24 23:22:00,67.0,43.0,-100.00,SSE,163,5.0,34.0,42,0.00,,,-99.99,0.000000,,2013-08-25 05:22:00,
2013-08-24 23:52:00,64.0,41.0,-100.00,SSE,150,7.0,20.0,43,0.00,,,0.00,0.000000,,2013-08-25 05:52:00,